Weather in Kholodny

Russia / Magadan District     62°42′45″N   147°54′58″E
temp.,
°C
wind,
m/s
gust,
m/s
humid.,
%
clouds,
%
prec.,
mm/h
press.,
hPa
HPBL,
m
28 february, sun
sun2823:00−32nne0110031 0.0 103019
02:00−32n0010088 0.0 102919
05:00−33sw0010091 0.0 102819
08:00−34ne1110080 0.0 102719
11:00−29nnw119778 0.0 102635
14:00−26nw008796 0.0 1023191
17:00−27ne009476 0.0 102319
20:00−31ne1110053 0.0 102419
1 march, mon
mon123:00−32ne1110050 0.0 102319
02:00−33ne1210068 0.0 102219
05:00−33ne1110076 0.0 102119
08:00−34ne1110086 0.0 102119
11:00−29ne119688 0.0 101988
14:00−25ne228895 0.0 1018264
17:00−26ne129088 0.0 101719
20:00−31ne129669 0.0 101919
2 march, tue
tue223:00−32ne229579 0.0 102019
02:00−31ne2290100 0.0 102019
05:00−31ne2289100 0.0 102119
08:00−31ne1289100 0.0 102319
11:00−27ne1285100 0.0 1022155
14:00−25ene2279100 0.0 1022332
17:00−25ene1183100 0.0 1022257
20:00−27ene1190100 0.0 102419
3 march, wed
wed323:00−28ene1198100 0.1 102419
02:00−29ene1199100 0.1 102419
05:00−29ene1199100 0.3 102319
08:00−32ene1199100 0.0 102219
11:00−29ne229191 0.0 1020115
14:00−27ne228792 0.0 1016296
17:00−27ne229195 0.0 101319
20:00−31ne229499 0.0 101119
4 march, thu
thu423:00−30ne2297100 0.1 100819
02:00−30ne2298100 0.1 100419
05:00−31ne1198100 0.1 100119
08:00−31ene1199100 0.1 99919
11:00−29ene1193100 0.4 996203
14:00−27wsw1285100 0.3 994504
17:00−26wsw2390100 0.4 993455
20:00−29w1198100 0.1 99519